Погода в Верхнем Токмаке

Украина / Запорожская область     47°12′02″N   36°22′20″E
темп.,
°C
ветер,
м/с
пор.,
м/с
влажн.,
%
обл.,
%
осадки,
мм/ч
давл.,
гПа
погр.,
м
18 мая, вт
вт1800:00+14ю3592100 0.6 1008134
03:00+13юз3697100 0.6 1007170
06:00+13ю3796100 0.0 1008305
09:00+15ююз578589 0.0 1008549
12:00+19ююз786287 0.9 10071464
15:00+20ююз8959100 0.9 10071537
18:00+18ю797121 0.1 1007842
21:00+14ю5109196 0.4 1007455
19 мая, ср
ср1900:00+14юз4792100 0.5 1006377
03:00+13ююз4995100 2.7 1006465
06:00+12ю5991100 0.0 1006435
09:00+16ююз6871100 0.5 10061017
12:00+17ююз896084 0.3 10071658
15:00+13ююз71285100 0.8 1008866
18:00+14ююз7118791 0.4 1007879
21:00+13юз8149074 1.1 1008735
20 мая, чт
чт2000:00+11юз81594100 0.2 1009689
03:00+11зюз7159125 0.3 1010692
06:00+11юз613934 0.0 1011521
09:00+16юз6107099 0.0 1012905
12:00+20юз675662 0.2 10121545
15:00+22ю664581 0.3 10121782
18:00+19ююв45525 0.0 1012801
21:00+14вюв466698 0.0 101371
21 мая, пт
пт2100:00+13вюв41167100 0.0 1012180
03:00+14в5127794 0.0 1011236
06:00+15в51174100 0.0 1011267
09:00+20в686194 0.0 1010510
12:00+23вюв4552100 0.0 1010856
15:00+25вюв4546100 0.0 10101095
18:00+24вюв45565 0.0 1009782
21:00+19всв4680100 0.0 100990
22 мая, сб
сб2200:00+17всв469142 0.0 100892
03:00+16всв33920 0.0 100834
06:00+17ссв58923 0.0 1007153
09:00+22всв4569100 0.0 1008460
12:00+26вюв4555100 0.0 1008924
15:00+27вюв4550100 0.0 1008790
18:00+25юв5661100 0.0 1008328
21:00+20вюв3678100 0.0 1010101